GFSMA_925_spd_021.txt.gz
Wind_Speed
10 8 7 9 13 11 10 21 17 13 12 11 11 12 12 12 14 13 10 11 11 12 14 15 15 14 13 16 15 17 15 15 15 15 14 14 13 12 12 12 12 11 11
14 15 13 13 16 10 8 25 14 13 11 12 14 12 13 14 13 14 12 15 16 15 16 19 18 19 18 16 16 18 17 17 18 17 15 16 16 15 14 14 14 14 14
15 16 14 14 17 18 14 17 18 9 11 12 11 12 12 15 15 15 16 14 17 19 18 22 23 24 22 19 18 19 20 20 21 19 18 18 18 17 17 17 17 17 16
15 14 14 14 14 11 13 25 22 10 10 10 14 16 12 14 14 15 16 15 16 19 20 24 28 27 26 20 18 19 21 22 23 22 21 20 20 20 19 19 19 20 18
17 17 17 14 14 16 19 22 21 14 14 13 14 13 15 13 14 15 16 17 19 17 20 23 26 26 27 25 21 22 24 24 24 23 24 22 22 21 21 21 21 21 22
15 18 18 18 18 19 22 24 23 21 18 19 16 16 15 18 14 15 16 19 21 21 20 18 22 22 29 29 21 24 26 26 26 24 23 22 23 23 22 23 23 23 24
16 16 19 16 18 21 22 17 19 17 18 14 8 12 19 18 18 15 15 16 18 18 20 24 16 18 27 32 27 27 28 26 25 26 25 26 24 24 25 24 25 26 26
14 15 18 18 18 20 21 21 15 13 16 14 14 18 10 17 22 20 17 17 16 17 18 20 18 17 21 20 26 32 30 28 25 27 28 29 30 30 29 29 25 27 28
12 14 15 16 16 19 21 20 20 18 16 16 19 13 5 7 8 10 13 14 14 15 16 16 17 15 18 21 21 25 25 23 23 27 29 30 31 31 31 29 28 28 28
9 11 14 15 17 16 18 19 20 20 19 16 11 17 17 13 2 3 5 14 12 13 13 13 14 15 16 17 19 19 19 21 20 20 25 28 30 33 30 30 31 31 28
7 8 11 12 14 15 15 16 16 19 18 16 14 12 15 17 11 6 4 3 5 10 17 18 14 20 20 19 14 15 18 22 20 18 20 23 28 30 31 31 32 34 35
10 9 10 10 11 12 13 14 16 16 16 15 17 14 13 11 11 12 5 4 5 5 9 10 12 18 13 17 19 7 9 11 15 17 18 20 23 27 28 29 31 34 35
15 12 11 10 9 9 9 11 10 12 14 14 17 15 16 17 10 9 9 9 6 4 6 9 10 3 4 12 9 5 7 11 14 15 17 18 18 21 24 26 28 28 31
13 13 12 9 8 6 5 5 7 10 11 13 15 16 15 16 12 13 13 9 5 10 8 9 8 5 5 7 13 11 8 12 13 12 13 14 16 17 19 20 24 27 28
12 14 13 10 8 5 3 6 7 7 7 10 14 16 14 14 14 13 9 13 9 5 5 2 1 3 3 5 8 6 10 12 10 7 8 8 9 11 12 11 15 22 21
12 14 13 11 10 8 5 4 4 5 5 4 5 7 9 10 11 10 12 12 10 10 5 5 2 3 4 5 7 5 4 5 6 6 6 6 5 6 6 5 4 5 8
12 13 12 11 10 11 13 11 9 7 7 5 3 1 3 5 7 8 9 8 8 10 8 4 3 4 5 3 3 4 6 9 11 13 13 12 9 6 5 4 3 4 5
11 12 12 14 13 13 12 12 12 11 11 10 8 3 3 4 4 5 4 4 3 4 2 6 3 4 4 5 6 8 10 14 13 11 9 10 8 8 8 5 4 4 4
10 12 13 13 13 13 13 14 15 15 14 15 13 10 10 8 6 6 5 4 2 2 3 3 4 6 6 7 10 10 10 11 13 12 8 6 7 7 7 6 7 7 7
9 11 12 12 13 14 14 13 13 13 14 15 15 14 13 12 10 9 10 9 7 9 10 13 10 9 8 7 5 7 10 10 12 13 15 15 13 14 15 13 11 10 11
8 10 11 11 10 11 11 11 13 13 13 14 16 16 16 14 14 12 11 10 10 10 10 12 12 11 10 5 4 3 7 9 11 9 10 11 10 10 11 9 10 7 6
6 8 9 10 9 9 10 10 9 10 11 11 12 12 12 14 17 16 13 10 8 7 7 8 7 8 5 4 3 4 8 3 3 4 8 12 10 12 11 12 10 10 9
6 6 7 7 9 9 10 11 10 9 10 11 11 11 13 14 14 15 19 20 20 16 12 11 10 8 6 4 4 6 3 4 3 7 9 10 8 10 7 7 6 7 7
5 6 6 7 7 8 9 11 10 9 11 12 12 11 11 11 13 13 14 17 17 17 14 13 12 10 9 9 8 8 8 10 7 4 5 3 2 4 4 4 5 6 6
6 6 6 6 6 6 8 6 8 7 9 10 10 12 10 10 11 11 10 13 14 15 18 18 17 15 11 6 3 7 3 4 4 6 3 5 4 3 2 3 2 2 3
8 8 8 8 7 6 6 4 4 4 7 9 10 10 9 9 7 7 7 6 8 8 7 7 8 9 10 12 9 11 9 2 3 6 3 2 7 7 3 3 4 1 4

GFSMA_925_spd_024.txt.gz
Wind_Speed
10 8 8 9 4 6 11 14 13 9 26 13 15 15 14 17 13 8 7 10 14 13 12 14 15 16 15 13 13 12 12 13 13 13 13 12 12 11 11 10 11 11 10
14 13 10 12 14 11 12 11 10 15 26 27 19 18 16 15 13 14 14 12 14 13 13 15 16 18 17 15 13 13 14 15 15 14 15 14 14 14 13 13 13 12 13
15 15 15 15 14 12 15 9 15 12 39 49 25 18 18 16 17 15 13 15 14 17 16 15 19 19 21 19 14 13 15 17 17 16 17 15 17 16 16 15 15 15 14
12 15 14 13 16 12 13 14 26 13 24 36 22 20 19 17 17 18 17 16 15 19 20 18 19 22 23 22 18 16 16 19 20 19 19 19 18 19 19 18 18 17 18
15 17 19 15 14 12 11 15 21 24 18 24 19 13 19 16 16 16 17 15 17 13 13 21 20 23 24 26 23 19 20 23 22 22 21 21 21 21 20 20 19 20 20
12 14 18 21 15 16 19 18 17 14 21 29 21 17 19 15 19 17 17 14 15 18 16 15 22 25 25 26 29 24 21 24 27 25 23 23 22 22 21 20 21 21 22
17 14 16 21 20 21 22 22 15 18 18 27 12 5 6 15 24 23 21 20 19 19 20 23 17 25 28 29 32 31 26 25 27 25 26 27 26 24 23 21 22 24 25
11 14 16 18 18 21 21 24 22 16 23 23 4 3 3 14 23 30 25 18 18 17 15 17 22 19 24 29 29 30 28 31 28 29 25 28 29 29 27 25 23 25 27
11 14 18 18 19 18 21 22 22 22 18 16 12 7 4 5 8 18 18 14 16 18 17 17 19 24 26 28 29 31 30 28 29 30 30 28 28 31 31 31 30 27 29
10 10 13 14 17 17 18 19 19 20 18 17 11 18 23 11 3 1 5 12 13 11 16 18 18 21 26 22 26 31 27 24 26 25 25 25 27 28 31 32 32 31 30
3 7 10 12 15 15 16 16 16 18 18 19 16 10 14 17 12 6 1 3 7 10 15 15 19 22 21 22 24 25 28 22 21 19 19 21 21 23 27 29 30 32 32
12 17 11 12 14 14 14 14 12 14 14 15 15 14 15 8 6 6 3 3 4 6 4 7 18 13 22 22 11 12 14 20 23 18 16 18 20 20 22 24 27 28 30
16 17 15 14 14 13 8 6 8 9 11 14 13 14 16 18 17 8 7 6 5 2 1 6 6 5 13 12 10 10 8 12 9 9 11 13 17 15 17 18 21 25 26
14 17 17 15 13 11 7 5 2 2 5 10 12 15 15 16 19 13 14 11 2 3 7 3 3 5 11 15 15 11 5 5 6 7 7 10 12 12 13 14 17 18 19
13 16 16 16 13 13 8 4 3 2 5 10 13 13 15 16 15 12 15 10 8 2 3 2 3 7 8 11 12 10 11 11 10 8 5 4 5 4 6 5 7 8 9
13 16 16 15 16 17 13 9 6 4 4 4 1 6 8 9 12 10 5 3 9 7 2 1 4 4 5 10 11 11 11 11 14 12 9 7 6 5 5 5 5 5 4
13 14 16 18 18 17 18 17 14 13 12 11 9 7 6 4 1 3 5 7 5 7 4 2 4 5 8 11 12 14 15 15 15 13 13 14 15 14 13 11 9 7 7
12 14 15 17 18 18 16 14 14 14 13 12 12 11 11 7 9 8 8 6 5 3 2 5 6 6 9 10 11 12 15 14 16 13 10 11 10 9 8 7 6 7 8
10 14 15 16 18 18 16 15 15 15 15 16 16 15 14 12 11 10 9 8 6 5 5 6 5 5 7 9 13 14 15 15 15 17 16 15 16 15 14 12 13 11 9
10 11 12 12 15 16 18 15 14 14 14 15 15 15 14 12 10 11 12 11 10 10 10 13 12 10 9 7 7 11 14 13 13 12 15 15 14 13 13 12 12 11 10
9 10 10 12 13 12 16 13 14 15 15 16 16 18 18 15 14 11 11 12 12 14 14 15 13 11 10 6 5 4 10 11 12 12 14 15 13 14 16 16 15 12 11
8 9 9 12 12 12 13 13 13 13 13 13 13 13 15 21 22 19 15 12 11 9 11 11 9 9 7 7 4 6 10 3 3 5 8 12 10 14 14 15 15 14 14
7 9 9 10 11 13 13 13 13 13 14 13 12 11 13 10 12 15 15 19 22 18 11 11 12 9 7 6 7 8 5 5 5 8 8 8 8 9 9 10 9 9 9
8 8 8 9 9 12 13 14 14 13 16 14 13 11 12 13 13 13 16 20 18 16 14 12 13 11 12 10 8 7 8 11 9 5 5 3 2 4 5 5 6 6 7
10 8 8 8 8 9 7 8 12 11 9 10 10 11 9 9 9 10 11 13 14 16 17 17 16 15 10 8 7 4 3 7 7 4 5 4 3 2 4 4 7 6 6
12 12 13 9 9 7 4 5 7 9 11 9 9 7 8 7 7 9 6 8 9 7 5 7 10 12 13 11 12 11 14 10 9 8 5 3 6 7 5 7 1 3 3

GFSMA_925_spd_030.txt.gz
Wind_Speed
10 5 7 7 14 14 16 15 13 15 14 15 16 14 13 12 14 15 10 16 19 14 17 18 20 20 20 19 19 18 17 16 16 15 15 15 14 13 13 14 14 12 12
13 10 11 13 17 14 16 15 15 16 18 18 15 19 17 16 15 17 17 14 20 17 19 19 21 22 22 21 21 19 19 18 17 16 16 16 16 15 14 13 13 13 15
18 14 16 17 17 19 18 18 19 19 20 24 23 18 18 14 16 18 18 18 16 17 19 21 21 23 23 24 22 22 20 19 20 19 18 18 18 17 17 15 15 15 15
16 13 16 18 14 15 17 19 17 17 17 18 19 22 23 15 17 19 18 19 21 22 22 24 24 23 24 25 25 24 23 22 21 21 20 19 19 19 19 18 18 17 18
12 13 16 16 14 15 15 17 18 19 20 20 17 15 16 17 15 17 19 22 23 25 25 25 26 27 25 25 28 27 26 23 23 23 23 22 21 20 21 21 20 20 20
12 18 12 12 12 14 15 17 18 17 19 18 14 13 14 17 16 19 23 24 26 27 26 27 25 27 30 29 28 28 29 27 24 21 23 24 23 23 21 22 22 22 22
4 8 8 7 9 12 13 16 22 18 19 20 15 13 17 18 19 24 30 30 29 24 25 26 29 24 23 28 30 29 28 27 26 22 22 22 23 23 23 24 25 25 25
5 7 8 11 11 11 12 13 14 18 20 17 7 3 3 6 15 20 25 27 29 26 24 23 25 26 27 24 27 29 28 26 27 25 23 23 20 23 24 25 27 26 27
6 8 9 11 12 11 13 13 12 13 14 18 21 7 2 3 3 11 19 28 31 27 21 21 20 21 23 25 25 22 23 24 22 23 24 23 24 24 25 26 26 29 29
9 8 11 8 9 11 11 11 11 11 12 16 18 24 11 7 3 3 4 10 18 21 18 18 17 16 17 18 16 13 15 12 11 11 16 17 18 19 20 24 28 29 29
9 10 8 7 6 9 11 11 9 10 12 16 17 10 24 23 18 3 2 7 7 13 14 12 12 13 15 13 8 7 8 13 14 15 17 14 13 13 17 19 23 27 29
12 13 10 9 8 7 7 7 4 6 8 11 15 16 14 5 9 5 2 5 4 1 3 1 3 7 12 11 11 11 13 7 12 17 14 12 14 16 17 20 24 26 29
15 15 12 11 9 7 6 6 4 2 4 6 12 14 13 13 8 5 8 2 6 3 6 9 5 2 4 6 7 5 8 9 4 8 15 13 17 19 21 23 28 30 27
16 16 14 14 11 7 6 7 8 7 5 1 3 6 6 7 8 7 7 10 2 2 3 6 9 10 11 8 10 5 4 2 8 10 12 16 20 22 24 23 19 16 15
13 13 14 14 15 15 12 8 10 9 7 4 1 2 5 4 5 5 6 7 4 2 1 4 3 8 8 7 4 6 3 4 6 5 5 5 5 5 4 4 4 4 3
12 12 13 13 13 14 14 16 16 15 16 17 13 9 6 2 1 4 6 7 11 9 3 3 4 12 8 7 5 4 3 2 3 3 3 3 3 3 4 5 4 7 8
12 11 12 14 17 15 13 14 16 15 16 15 14 13 13 10 10 6 5 5 8 8 8 9 17 14 11 9 8 8 8 8 8 6 6 6 7 6 6 7 8 10 11
11 10 11 14 16 16 16 17 16 15 16 17 14 13 13 10 11 9 7 8 6 4 15 17 15 9 13 13 13 12 12 12 12 10 8 8 10 9 10 11 12 12 12
10 10 12 15 15 15 16 16 16 17 17 16 14 14 14 13 13 11 9 8 7 9 19 19 12 14 14 13 14 14 13 12 12 13 14 13 13 13 15 15 14 12 11
9 8 11 12 13 15 16 17 17 19 20 18 18 18 16 14 13 12 12 11 10 15 18 20 18 14 13 13 13 14 11 9 10 9 9 9 8 7 7 8 9 11 12
9 8 8 10 11 12 13 13 15 16 18 21 21 21 20 17 14 13 13 13 14 16 17 17 13 13 11 14 9 6 10 10 10 8 10 11 11 12 13 13 13 14 14
9 6 7 10 11 11 9 10 12 11 13 13 15 15 16 16 15 14 12 11 10 14 17 16 12 11 8 8 9 15 16 8 3 5 6 8 7 10 10 11 12 13 13
10 7 8 9 10 9 7 8 9 10 11 11 13 14 16 16 13 14 14 13 13 11 8 7 12 9 7 7 11 15 10 5 4 8 7 4 4 5 6 8 8 8 9
11 8 8 9 9 9 8 8 8 9 10 11 10 12 12 15 16 15 17 18 17 15 14 14 13 10 8 5 5 5 6 7 9 10 2 2 4 3 5 6 7 7 9
13 11 8 8 8 8 7 8 7 6 9 9 7 8 9 8 10 10 12 15 16 16 14 14 15 12 8 6 5 5 8 11 3 6 7 2 6 5 5 6 8 9 9
15 14 12 7 6 5 4 8 6 7 9 7 6 7 7 8 5 5 5 7 9 8 9 9 8 10 10 7 5 2 3 15 5 4 7 6 10 7 3 6 9 9 10

GFSMA_925_spd_033.txt.gz
Wind_Speed
13 11 12 12 11 12 12 12 12 13 13 13 15 16 15 14 15 16 15 13 16 18 17 17 18 19 18 17 17 16 16 16 15 16 15 16 14 14 13 14 13 12 12
14 14 13 13 12 13 13 14 14 14 15 16 16 19 17 15 14 15 16 13 14 18 19 18 19 19 19 19 19 19 18 18 18 17 16 17 17 16 15 15 16 15 15
17 14 16 15 13 13 14 14 16 16 18 20 21 19 18 18 18 19 18 19 17 17 20 19 21 20 20 20 20 20 21 21 19 19 19 19 19 18 17 16 16 17 17
19 17 17 20 16 15 16 20 20 19 19 20 20 23 25 22 20 18 21 19 18 18 20 18 19 21 20 21 23 23 23 23 22 21 22 22 21 20 20 20 19 19 19
12 16 14 15 14 13 15 15 16 20 19 18 18 17 17 20 28 22 21 20 20 20 21 21 22 22 23 23 23 24 25 25 25 24 25 23 23 22 22 22 22 22 22
8 10 15 14 11 11 12 15 17 17 16 17 15 16 15 15 17 20 19 19 18 19 21 21 22 24 24 25 25 24 23 27 27 27 26 25 25 23 24 24 24 24 24
7 8 9 9 9 10 12 12 14 18 18 17 10 11 17 18 17 18 18 20 20 19 19 21 23 24 23 22 23 27 27 25 27 28 29 26 23 22 23 26 26 27 26
2 4 7 9 8 10 10 11 11 13 13 15 7 4 1 2 10 15 17 17 19 19 20 21 21 21 22 23 22 20 24 28 28 27 26 27 24 21 19 24 25 26 28
3 4 7 10 10 8 10 10 11 13 13 12 18 5 2 3 2 4 10 10 13 18 18 21 18 17 21 20 21 19 20 19 24 26 28 35 25 22 23 24 24 25 26
5 6 8 8 8 8 9 9 9 12 13 12 14 19 5 3 2 3 2 8 10 14 18 18 14 16 16 15 13 14 14 15 15 16 16 13 15 15 17 18 19 21 22
7 8 7 7 8 7 8 9 9 10 12 12 12 8 18 6 3 3 3 5 11 7 2 8 11 11 13 13 12 9 4 9 14 18 18 15 12 10 10 12 13 15 17
10 9 9 7 7 7 6 5 3 7 9 11 13 13 9 6 7 8 1 0 3 6 6 4 1 5 7 7 3 6 7 8 9 11 13 14 14 15 13 12 14 16 18
12 11 11 10 7 5 4 4 1 2 5 6 9 12 14 11 5 10 7 3 2 2 3 9 5 4 0 4 2 1 1 3 8 7 9 13 13 15 17 19 20 22 22
11 11 12 12 9 5 4 4 5 4 3 3 4 5 6 7 7 8 5 8 2 3 2 4 5 5 5 7 6 2 2 5 5 7 9 9 10 10 11 12 12 11 11
8 8 9 10 11 10 8 8 10 11 8 5 4 5 4 4 6 8 10 13 8 3 1 2 2 4 3 1 3 3 5 7 8 7 5 5 7 8 9 8 7 6 5
7 9 12 11 10 12 12 14 14 15 16 15 12 8 6 4 6 8 9 10 13 11 2 3 3 6 3 1 1 2 4 5 7 8 9 9 10 11 12 13 14 13 15
7 9 11 13 13 12 12 14 15 14 14 14 14 14 13 9 7 4 5 8 11 13 6 4 9 9 5 1 2 4 5 7 8 8 7 7 8 9 9 9 9 9 10
9 10 12 14 15 15 14 14 14 14 14 16 15 14 14 11 11 9 7 6 8 13 9 10 12 7 6 6 7 7 8 9 11 12 9 12 12 12 12 13 13 12 11
9 10 11 14 17 16 17 17 16 17 18 16 15 16 16 14 14 11 9 6 5 7 11 14 9 8 10 8 9 8 8 8 9 9 8 9 11 12 11 11 10 9 8
7 9 9 12 14 15 16 16 17 17 19 20 19 18 16 15 15 14 13 11 10 11 12 16 12 11 10 9 9 9 7 7 8 8 7 7 7 7 9 10 10 11 11
7 7 8 11 11 11 12 13 15 18 19 19 19 18 18 17 15 14 15 15 12 12 13 13 10 9 8 9 7 5 6 7 7 7 9 11 11 11 13 12 12 13 13
8 7 8 9 9 8 9 8 8 11 13 14 15 14 15 16 16 15 14 14 14 13 12 11 9 7 6 4 6 7 9 3 2 3 4 7 7 9 10 10 10 10 10
9 7 9 8 8 7 7 7 7 8 11 13 13 16 15 15 14 14 14 14 14 11 8 6 10 5 2 1 4 7 7 2 0 4 2 3 3 4 5 6 6 6 7
9 6 8 8 8 8 7 7 7 8 9 11 12 12 14 15 16 15 15 17 17 17 14 13 10 9 6 2 2 3 5 2 6 6 2 1 0 1 2 3 4 5 6
10 8 7 7 8 7 5 5 3 5 7 8 9 10 8 8 11 11 12 15 15 15 13 14 13 11 8 3 3 4 7 9 3 5 3 2 2 2 3 3 5 7 7
13 12 9 6 6 5 3 5 3 4 6 6 7 6 7 6 4 6 6 8 11 10 9 9 9 9 9 6 1 5 5 9 3 3 6 5 6 5 2 5 5 6 6

GFSMA_925_spd_036.txt.gz
Wind_Speed
13 11 8 9 10 11 11 11 11 10 10 10 11 12 13 15 15 16 17 16 14 14 17 15 13 17 17 17 17 17 17 17 16 16 17 16 15 15 14 13 14 11 11
14 11 11 10 11 11 12 13 14 13 13 13 13 13 15 15 15 15 16 17 13 15 16 19 16 17 19 19 19 19 19 19 18 18 18 17 18 16 16 15 16 14 14
14 12 11 12 12 13 13 15 17 16 15 15 17 17 18 18 17 15 15 16 17 14 14 18 19 19 20 20 21 21 21 21 19 20 20 18 19 19 19 17 17 17 17
15 15 15 14 13 15 13 13 12 16 17 18 20 19 20 21 18 17 17 17 17 18 18 17 20 18 20 20 22 23 22 22 22 22 22 20 20 21 21 21 20 19 18
11 11 11 11 8 12 14 14 15 15 16 18 19 16 16 18 21 21 24 17 19 19 18 17 18 18 19 21 21 22 24 24 23 24 24 23 22 23 23 23 23 22 22
1 4 6 9 9 10 11 12 13 14 15 15 13 16 16 17 18 19 21 21 18 19 19 18 17 19 19 20 20 21 22 22 25 25 26 26 25 24 24 25 25 25 24
3 2 3 5 8 10 10 11 13 13 16 15 10 11 15 17 17 17 17 18 17 18 17 16 16 17 17 18 17 18 19 25 27 23 24 25 26 25 25 25 26 27 26
1 2 4 6 9 9 11 12 12 12 10 11 7 3 2 3 13 18 16 17 18 20 20 18 17 15 15 15 15 15 19 22 21 22 24 27 30 28 28 27 25 27 28
2 3 4 6 9 9 8 10 12 14 11 8 16 4 1 3 1 3 6 13 13 15 15 15 16 14 13 14 15 14 14 19 21 21 23 23 22 28 35 28 29 26 26
4 5 6 6 7 7 8 8 10 13 14 12 9 18 5 1 2 1 4 7 6 2 8 13 13 11 12 13 12 11 11 10 9 10 14 15 16 16 23 27 34 28 25
7 8 7 6 5 6 7 8 8 11 13 13 13 6 18 7 4 2 2 1 5 10 6 3 4 6 7 8 7 4 4 2 7 4 7 10 11 9 11 13 6 8 10
9 9 9 8 6 6 6 5 6 6 9 12 11 11 9 6 8 4 2 2 2 7 8 7 5 3 1 2 2 1 2 4 6 7 7 10 10 11 13 14 10 9 12
11 13 13 12 8 5 4 4 3 1 5 8 11 14 15 10 9 12 7 4 2 2 5 9 10 8 7 6 5 5 5 6 9 7 7 6 7 10 12 13 14 14 12
11 10 12 13 11 6 5 5 5 4 4 1 3 7 12 13 12 8 8 7 2 2 3 5 8 7 9 10 7 5 8 10 10 9 8 8 8 8 7 7 7 8 7
9 11 11 11 11 12 10 9 9 10 7 6 3 2 2 4 6 9 10 10 7 3 1 3 3 7 7 6 7 7 9 10 10 8 8 8 9 9 10 11 11 10 7
8 11 12 10 11 11 11 12 14 15 15 14 11 7 4 1 3 5 6 8 9 5 3 3 4 7 6 7 7 7 9 9 10 11 11 10 10 10 10 10 10 11 11
9 11 12 12 11 11 12 13 15 14 15 14 13 13 12 8 5 1 3 7 6 5 6 4 7 9 8 7 9 10 10 11 11 10 10 11 11 11 10 10 10 10 10
10 12 13 15 15 15 15 15 16 16 17 18 16 14 12 10 10 8 6 3 6 6 6 8 12 6 9 7 8 8 10 11 13 12 12 13 13 12 13 13 12 12 10
10 12 14 17 17 18 18 17 18 19 19 18 17 16 16 15 14 11 8 6 5 6 6 10 7 6 8 7 9 9 10 10 10 9 9 10 10 10 9 9 8 9 8
8 10 12 13 15 16 17 17 18 19 20 19 18 18 18 17 17 15 13 12 9 9 8 13 10 9 7 6 6 8 9 8 10 10 8 9 8 8 10 12 12 12 12
7 9 9 11 12 12 13 14 15 16 16 17 18 18 18 16 15 15 15 13 10 11 12 11 9 8 6 5 3 2 5 6 7 7 10 11 11 11 12 12 12 13 13
7 8 8 9 10 10 10 8 10 13 15 17 17 17 17 17 16 15 15 15 14 12 11 10 8 7 5 3 3 4 7 2 1 2 3 6 6 9 10 10 10 10 10
7 8 8 7 9 10 9 9 8 11 13 15 16 17 19 18 16 15 14 14 14 12 10 8 10 7 4 1 1 5 5 1 2 4 3 3 2 4 5 6 6 7 9
8 8 8 7 8 10 9 9 8 8 10 12 12 14 15 16 16 14 14 17 18 18 16 15 12 9 7 5 2 1 3 1 5 4 2 2 1 1 2 3 4 5 7
11 10 9 8 8 8 7 6 6 7 9 10 10 9 8 11 12 11 11 14 14 16 14 14 14 13 10 6 5 4 1 3 1 3 2 1 1 2 3 3 4 5 5
12 10 10 9 8 6 5 4 4 6 7 7 8 8 9 6 6 8 7 8 9 8 8 8 10 11 11 9 7 5 4 5 2 1 4 2 3 3 2 5 6 6 6